Stations météo

réclame
Mon MeteoGroup
Jersey Airport, Grande-Bretagne (3895): Température de l'air & dewpoint: 11.01.2019 00:00:00 - 17.01.2019 00:00:00 (GMT)Jersey Airport, Grande-Bretagne (3895): Température de l'air -20cm & Température de l'air -100cm: 11.01.2019 00:00:00 - 17.01.2019 00:00:00 (GMT)Jersey Airport, Grande-Bretagne (3895): Vitesse du vent & gusts: 11.01.2019 00:00:00 - 17.01.2019 00:00:00 (GMT)Jersey Airport, Grande-Bretagne (3895): Direction du vent: 11.01.2019 00:00:00 - 17.01.2019 00:00:00 (GMT)Jersey Airport, Grande-Bretagne (3895): reduced air pressure: 11.01.2019 00:00:00 - 17.01.2019 00:00:00 (GMT)Jersey Airport, Grande-Bretagne (3895): visibility: 11.01.2019 00:00:00 - 17.01.2019 00:00:00 (GMT)Jersey Airport, Grande-Bretagne (3895): Ensoleillement: 11.01.2019 00:00:00 - 17.01.2019 00:00:00 (GMT)Jersey Airport, Grande-Bretagne (3895): Quantités de précipitations: 11.01.2019 00:00:00 - 17.01.2019 00:00:00 (GMT)
Date & Time tt [°C] td [°C] tt -20cm [°C] tt -100cm [°C] ff [km/h] ff [knt] fx [km/h] fx [knt] dd ppp [hPa] vv [km] sd [min] rr [mm]
17.01.2019 00:00:00 7,4 5,3 - - 29 16 61 33 W 1007,0 10 - 0,4
16.01.2019 23:00:00 8,3 4,8 - - 34 18 55 30 W 1007,1 10 0 0,0
16.01.2019 22:00:00 8,4 4,7 - - 31 17 - - W 1007,3 10 0 0,0
16.01.2019 21:00:00 8,1 4,5 - - 28 15 - - W 1007,4 10 0 0,0
16.01.2019 20:00:00 7,1 4,8 - - 31 17 52 28 WNW 1007,6 10 0 0,0
16.01.2019 19:00:00 8,3 5,5 - - 16 9 - - WNW 1007,2 10 0 0,0
16.01.2019 18:00:00 8,3 6,8 - - 22 12 - - NW 1007,0 30 0 0,0
16.01.2019 17:00:00 8,3 7,6 - - 21 11 54 29 NW 1006,5 10 0 1,2
16.01.2019 16:00:00 9,4 8,5 - - 28 15 - - SW 1006,2 10 0 0,0
16.01.2019 15:00:00 8,8 8,4 - - 28 15 46 25 SW 1006,5 10 0 0,0
16.01.2019 14:00:00 8,4 7,7 - - 29 16 46 25 SW 1007,2 10 0 0,0
16.01.2019 13:00:00 8,8 6,7 - - 28 15 46 25 SSW 1007,8 10 0 0,0
16.01.2019 12:00:00 8,4 6,1 - - 24 13 - - SSW 1008,7 10 0 0,0
16.01.2019 11:00:00 7,9 5,9 - - 29 16 48 26 S 1009,7 10 0 0,0
16.01.2019 10:00:00 8,0 5,9 - - 26 14 - - SSW 1010,4 10 0 0,0
16.01.2019 09:00:00 7,4 5,0 9,7 9,7 22 12 - - SSW 1010,9 10 0 0,0
16.01.2019 08:00:00 7,0 4,6 - - 34 18 - - S 1011,3 22 0 0,0
16.01.2019 07:00:00 6,9 4,5 - - 24 13 - - S 1011,9 19 0 0,0
16.01.2019 06:00:00 6,8 4,4 - - 24 13 - - SSW 1012,7 10 0 0,0
16.01.2019 05:00:00 6,8 4,4 - - 22 12 - - SSW 1013,5 10 0 0,0
16.01.2019 04:00:00 6,6 4,3 - - 28 15 - - S 1014,3 10 0 0,0
16.01.2019 03:00:00 6,9 4,4 - - 22 12 - - SSW 1015,3 10 0 0,0
16.01.2019 02:00:00 7,2 4,1 - - 24 13 - - SSW 1016,0 10 0 0,0
16.01.2019 01:00:00 7,1 4,2 - - 22 12 - - SSW 1017,0 10 0 0,0
16.01.2019 00:00:00 7,0 4,1 - - 22 12 - - SW 1017,8 10 - 0,0
15.01.2019 23:00:00 7,2 4,7 - - 22 12 - - SW 1018,5 10 0 0,0
15.01.2019 22:00:00 7,3 4,7 - - 24 13 - - SW 1019,1 10 0 0,0
15.01.2019 21:00:00 7,5 5,0 - - 21 11 - - SW 1019,5 10 0 0,0
15.01.2019 20:00:00 7,5 5,5 - - 16 9 - - SW 1019,8 30 0 0,0
15.01.2019 19:00:00 7,3 5,8 - - 21 11 - - SSW 1020,4 17 0 0,0
15.01.2019 18:00:00 7,3 5,8 - - 21 11 - - SW 1020,9 10 0 0,0
15.01.2019 17:00:00 7,3 6,0 - - 21 11 - - SW 1021,2 10 0 0,0
15.01.2019 16:00:00 7,8 6,1 - - 22 12 - - SW 1021,5 10 0 0,0
15.01.2019 15:00:00 7,9 6,0 - - 22 12 - - SW 1021,8 10 0 0,0
15.01.2019 14:00:00 8,0 6,2 - - 28 15 - - WSW 1022,2 10 0 0,0
15.01.2019 13:00:00 8,2 6,6 - - 24 13 - - WSW 1023,0 10 12 0,0
15.01.2019 12:00:00 7,9 7,3 - - 18 10 - - SW 1023,7 10 0 0,2
15.01.2019 11:00:00 8,4 7,6 - - 13 7 - - SW 1024,3 18 0 0,0
15.01.2019 10:00:00 7,7 7,2 - - 13 7 - - SW 1024,5 10 0 0,2
15.01.2019 09:00:00 7,3 6,9 9,7 9,7 15 8 - - W 1024,7 7 0 0,2
15.01.2019 08:00:00 7,5 6,6 - - 9 5 - - W 1024,4 9 0 0,0
15.01.2019 07:00:00 8,1 4,9 - - 13 7 - - WSW 1024,3 10 0 0,0
15.01.2019 06:00:00 8,0 4,5 - - 9 5 - - WSW 1024,6 21 0 0,0
15.01.2019 05:00:00 8,1 3,6 - - 9 5 - - W 1024,9 10 0 0,0
15.01.2019 04:00:00 7,8 2,8 - - 5 3 - - WNW 1025,3 10 0 0,0
15.01.2019 03:00:00 7,5 2,8 - - 8 4 - - NW 1025,6 10 0 0,0
15.01.2019 02:00:00 8,0 2,5 - - 11 6 - - WNW 1025,7 10 0 0,0
15.01.2019 01:00:00 7,7 2,6 - - 5 3 - - NW 1025,8 10 0 0,0
15.01.2019 00:00:00 8,3 2,6 - - 13 7 - - W 1025,8 10 - 0,0
14.01.2019 23:00:00 8,1 2,6 - - 8 4 - - NW 1025,7 10 0 0,0
14.01.2019 22:00:00 8,2 2,3 - - 11 6 - - WNW 1025,8 10 0 0,0
14.01.2019 21:00:00 8,1 1,9 - - 9 5 - - NW 1026,0 10 0 0,0
14.01.2019 20:00:00 7,9 2,6 - - 9 5 - - NW 1026,0 35 0 0,0
14.01.2019 19:00:00 8,2 2,3 - - 9 5 - - NW 1026,0 10 0 0,0
14.01.2019 18:00:00 8,3 2,4 - - 13 7 - - NW 1025,8 26 0 0,0
14.01.2019 17:00:00 8,4 2,3 - - 18 10 - - NNW 1025,4 35 0 0,0
14.01.2019 16:00:00 8,4 3,1 - - 11 6 - - NW 1025,1 10 0 0,0
14.01.2019 15:00:00 8,8 2,9 - - 15 8 - - NW 1024,9 10 0 0,0
14.01.2019 14:00:00 9,0 3,1 - - 15 8 - - NW 1024,8 10 0 0,0
14.01.2019 13:00:00 9,1 3,2 - - 15 8 - - NW 1024,7 10 0 0,0
14.01.2019 12:00:00 9,1 3,3 - - 15 8 - - NW 1024,5 10 0 0,0
14.01.2019 11:00:00 9,1 2,9 - - 18 10 - - NW 1024,5 10 0 0,0
14.01.2019 10:00:00 9,0 2,9 - - 18 10 - - NNW 1024,4 10 0 0,0
14.01.2019 09:00:00 8,9 2,8 9,9 9,7 16 9 - - NNW 1023,8 10 0 0,0
14.01.2019 08:00:00 8,8 2,7 - - 16 9 - - NNW 1023,0 10 0 0,0
14.01.2019 07:00:00 8,7 2,9 - - 16 9 - - NW 1022,4 10 0 0,0
14.01.2019 06:00:00 8,8 3,0 - - 24 13 48 26 NNW 1022,0 10 0 0,0
14.01.2019 05:00:00 8,9 2,6 - - 22 12 52 28 NW 1021,8 10 0 0,0
14.01.2019 04:00:00 8,8 3,3 - - 26 14 55 30 NNW 1021,1 10 0 0,0
14.01.2019 03:00:00 9,6 5,6 - - 34 18 52 28 NW 1020,7 16 0 0,0
14.01.2019 02:00:00 10,0 6,3 - - 22 12 - - NW 1020,3 10 0 0,0
14.01.2019 01:00:00 10,4 8,9 - - 26 14 50 27 WNW 1019,9 10 0 0,0
14.01.2019 00:00:00 10,5 9,0 - - 31 17 48 26 WNW 1019,6 10 - 0,0
13.01.2019 23:00:00 10,4 9,2 - - 31 17 52 28 WNW 1019,6 9 0 0,0
13.01.2019 22:00:00 10,4 9,2 - - 34 18 52 28 WNW 1019,2 10 0 0,0
13.01.2019 21:00:00 10,3 9,3 - - 29 16 52 28 W 1019,3 10 0 0,0
13.01.2019 20:00:00 10,3 9,1 - - 37 20 61 33 WNW 1018,9 10 0 0,0
13.01.2019 19:00:00 10,2 8,9 - - 37 20 52 28 WNW 1019,1 10 0 0,0
13.01.2019 18:00:00 10,1 8,5 - - 37 20 55 30 W 1019,3 10 0 0,0
13.01.2019 17:00:00 10,1 8,4 - - 39 21 65 35 W 1019,3 10 0 0,0
13.01.2019 16:00:00 10,1 8,0 - - 41 22 65 35 W 1019,2 10 0 0,0
13.01.2019 15:00:00 10,2 7,8 - - 39 21 59 32 W 1019,3 10 0 0,0
13.01.2019 14:00:00 10,1 8,0 - - 39 21 57 31 W 1020,3 13 0 0,0
13.01.2019 13:00:00 10,0 8,7 - - 39 21 59 32 W 1021,1 10 0 0,0
13.01.2019 12:00:00 10,1 8,7 - - 35 19 59 32 W 1021,6 10 0 0,0
13.01.2019 11:00:00 10,1 8,3 - - 42 23 65 35 W 1022,4 12 0 0,0
13.01.2019 10:00:00 10,0 8,8 - - 41 22 57 31 W 1022,4 10 0 0,0
13.01.2019 09:00:00 10,0 8,3 9,7 9,5 39 21 55 30 W 1022,9 10 0 0,0
13.01.2019 08:00:00 9,7 8,7 - - 35 19 57 31 W 1023,2 10 0 0,0
13.01.2019 07:00:00 9,8 9,7 - - 34 18 48 26 W 1023,3 9 0 0,0
13.01.2019 06:00:00 9,6 9,5 - - 31 17 54 29 W 1023,5 6 0 0,0
13.01.2019 05:00:00 10,0 9,5 - - 29 16 46 25 W 1023,9 10 0 0,0
13.01.2019 04:00:00 10,2 9,4 - - 29 16 46 25 W 1024,3 10 0 0,0
13.01.2019 03:00:00 10,0 9,2 - - 31 17 46 25 W 1024,8 10 0 0,0
13.01.2019 02:00:00 10,0 9,1 - - 34 18 50 27 W 1024,8 10 0 0,0
13.01.2019 01:00:00 10,0 9,1 - - 31 17 48 26 W 1025,2 10 0 0,0
13.01.2019 00:00:00 10,1 9,0 - - 34 18 48 26 WNW 1025,7 10 - 0,0
12.01.2019 23:00:00 10,0 8,7 - - 29 16 50 27 WNW 1026,2 10 0 0,0
12.01.2019 22:00:00 10,0 8,5 - - 29 16 - - WNW 1026,4 10 0 0,0
12.01.2019 21:00:00 9,7 7,8 - - 22 12 - - WNW 1026,0 10 0 0,0
12.01.2019 20:00:00 9,6 7,4 - - 26 14 - - WNW 1026,3 10 0 0,0
12.01.2019 19:00:00 9,7 7,8 - - 26 14 - - WNW 1026,4 10 0 0,0
12.01.2019 18:00:00 9,5 8,4 - - 26 14 - - WNW 1026,2 10 0 0,0
12.01.2019 17:00:00 9,9 9,1 - - 26 14 - - WNW 1026,4 10 0 0,0
12.01.2019 16:00:00 9,9 9,0 - - 28 15 46 25 WNW 1026,6 10 0 0,0
12.01.2019 15:00:00 9,8 9,4 - - 28 15 48 26 WNW 1026,9 18 0 0,0
12.01.2019 14:00:00 10,1 9,4 - - 29 16 46 25 W 1027,0 10 0 0,0
12.01.2019 13:00:00 9,5 9,4 - - 29 16 48 26 W 1027,8 10 0 0,8
12.01.2019 12:00:00 9,9 9,2 - - 31 17 46 25 W 1028,4 10 0 0,0
12.01.2019 11:00:00 9,5 8,7 - - 26 14 - - W 1029,3 10 0 0,0
12.01.2019 10:00:00 9,2 8,7 - - 24 13 - - W 1029,7 10 0 0,2
12.01.2019 09:00:00 9,1 8,6 9,0 9,5 26 14 - - WNW 1030,1 10 0 0,2
12.01.2019 08:00:00 8,7 7,9 - - 22 12 - - W 1029,8 10 0 0,0
12.01.2019 07:00:00 8,6 7,6 - - 24 13 - - W 1029,9 10 0 0,0
12.01.2019 06:00:00 9,1 7,3 - - 24 13 - - W 1030,4 10 0 0,0
12.01.2019 05:00:00 9,3 4,3 - - 18 10 - - WNW 1031,1 10 0 0,0
12.01.2019 04:00:00 8,6 5,0 - - 9 5 - - W 1031,6 10 0 0,0
12.01.2019 03:00:00 8,0 4,4 - - 9 5 - - W 1031,8 50 0 0,0
12.01.2019 02:00:00 8,1 3,9 - - 8 4 - - NW 1032,1 10 0 0,0
12.01.2019 01:00:00 7,8 4,1 - - 9 5 - - NW 1033,0 10 0 0,0
12.01.2019 00:00:00 7,4 5,0 - - 5 3 48 26 NNW 1033,1 10 - 0,0
11.01.2019 23:00:00 6,2 4,0 - - 11 6 - - N 1033,1 45 0 0,0
11.01.2019 22:00:00 7,5 4,8 - - 11 6 - - NNW 1032,9 10 0 0,0
11.01.2019 21:00:00 8,2 5,6 - - 11 6 - - N 1032,6 10 0 0,0
11.01.2019 20:00:00 8,3 6,1 - - 16 9 - - N 1032,6 25 0 0,0
11.01.2019 19:00:00 8,0 5,7 - - 11 6 - - N 1032,4 10 0 0,0
11.01.2019 18:00:00 8,2 6,2 - - 11 6 - - N 1032,2 10 0 0,0
11.01.2019 17:00:00 8,0 6,3 - - 13 7 - - N 1031,9 10 0 0,0
11.01.2019 16:00:00 8,1 6,6 - - 13 7 - - N 1031,7 10 0 0,2
11.01.2019 15:00:00 8,0 6,9 - - 13 7 - - N 1031,3 10 0 0,4
11.01.2019 14:00:00 8,5 6,9 - - 16 9 - - N 1031,1 10 0 0,0
11.01.2019 13:00:00 8,6 6,3 - - 13 7 - - N 1031,2 10 0 0,0
11.01.2019 12:00:00 8,9 5,7 - - 15 8 - - NNW 1031,5 10 0 0,0
11.01.2019 11:00:00 8,8 5,3 - - 16 9 - - NNW 1031,8 40 0 0,0
11.01.2019 10:00:00 9,1 3,4 - - 15 8 - - N 1031,3 10 12 0,0
11.01.2019 09:00:00 8,2 4,0 8,9 9,5 15 8 - - N 1031,1 10 0 0,0
11.01.2019 08:00:00 8,4 4,5 - - 18 10 - - NNW 1030,7 50 0 0,0
11.01.2019 07:00:00 7,3 6,1 - - 8 4 - - N 1030,7 10 0 0,0
11.01.2019 06:00:00 6,9 5,5 - - 11 6 - - N 1030,5 10 0 0,0
11.01.2019 05:00:00 8,2 5,8 - - 16 9 - - NNE 1030,7 40 0 0,0
11.01.2019 04:00:00 8,3 6,2 - - 15 8 - - N 1030,9 10 0 0,0
11.01.2019 03:00:00 8,4 7,2 - - 15 8 - - N 1030,9 10 0 0,0
11.01.2019 02:00:00 8,3 7,6 - - 16 9 - - N 1030,9 4,8 0 0,0
11.01.2019 01:00:00 8,0 7,0 - - 15 8 - - N 1030,9 10 0 0,0
11.01.2019 00:00:00 7,4 5,0 - - 16 9 - - N 1033,1 10 - 0,0

tt = Température de l'air
td = dewpoint
tt -20cm = Température de l'air -20cm
tt -100cm = Température de l'air -100cm
ff = Vitesse du vent
fx = gusts
dd = Direction du vent
ppp = reduced air pressure
vv = visibility
sd = Ensoleillement
rr = Quantités de précipitations

stations d'obs. à proximité